• In Hungary
  • List of Countries
  • For 7 days
  • Water Temperature
  • Satellite Maps
  • Weather Map
  • News
  • Weather Widgets
  • user-avatar
    Login

    Hourly Weather New Delhi

    Today, 19 December, Tuesday

    Time Temperature Precipitation Wind Pressure Humidity
    00:00 +18°C° 0 mm 2 mps 743 mmHg 23%
    01:00 +17°C° 0 mm 2 mps 743 mmHg 23%
    02:00 +17°C° 0 mm 3 mps 743 mmHg 23%
    03:00 +17°C° 0 mm 3 mps 743 mmHg 23%
    04:00 +16°C° 0 mm 3 mps 743 mmHg 23%
    05:00 +16°C° 0 mm 3 mps 743 mmHg 24%
    06:00 +16°C° 0 mm 3 mps 743 mmHg 24%
    07:00 +16°C° 0 mm 3 mps 743 mmHg 25%
    08:00 +17°C° 0 mm 3 mps 744 mmHg 26%
    09:00 +19°C° 0 mm 3 mps 744 mmHg 23%
    10:00 +21°C° 0 mm 3 mps 744 mmHg 21%
    11:00 +24°C° 0 mm 3 mps 745 mmHg 19%
    12:00 +25°C° 0 mm 3 mps 744 mmHg 18%
    13:00 +26°C° 0 mm 3 mps 744 mmHg 17%
    14:00 +28°C° 0 mm 3 mps 743 mmHg 16%
    15:00 +26°C° 0 mm 3 mps 743 mmHg 18%
    16:00 +25°C° 0 mm 2 mps 743 mmHg 20%
    17:00 +24°C° 0 mm 2 mps 743 mmHg 22%
    18:00 +23°C° 0 mm 2 mps 743 mmHg 22%
    19:00 +23°C° 0 mm 2 mps 744 mmHg 22%
    20:00 +21°C° 0 mm 2 mps 744 mmHg 22%
    21:00 +21°C° 0 mm 2 mps 744 mmHg 23%
    22:00 +20°C° 0 mm 2 mps 744 mmHg 23%
    23:00 +20°C° 0 mm 2 mps 744 mmHg 24%

    Tomorrow, 20 December, Wednesday

    Time Temperature Precipitation Wind Pressure Humidity
    00:00 +20°C° 0 mm 2 mps 744 mmHg 24%
    01:00 +19°C° 0 mm 2 mps 744 mmHg 25%
    02:00 +19°C° 0 mm 2 mps 744 mmHg 26%
    03:00 +18°C° 0 mm 2 mps 744 mmHg 27%
    04:00 +18°C° 0 mm 2 mps 744 mmHg 27%
    05:00 +18°C° 0 mm 2 mps 744 mmHg 28%
    06:00 +18°C° 0 mm 2 mps 744 mmHg 28%
    07:00 +18°C° 0 mm 2 mps 745 mmHg 29%
    08:00 +18°C° 0 mm 2 mps 745 mmHg 30%
    09:00 +20°C° 0 mm 3 mps 745 mmHg 26%
    10:00 +22°C° 0 mm 3 mps 746 mmHg 23%
    11:00 +26°C° 0 mm 3 mps 746 mmHg 19%
    12:00 +27°C° 0 mm 3 mps 745 mmHg 18%
    13:00 +28°C° 0 mm 3 mps 744 mmHg 17%
    14:00 +29°C° 0 mm 3 mps 744 mmHg 15%
    15:00 +27°C° 0 mm 2 mps 744 mmHg 18%
    16:00 +26°C° 0 mm 2 mps 743 mmHg 20%
    17:00 +24°C° 0 mm 2 mps 743 mmHg 22%
    18:00 +24°C° 0 mm 2 mps 744 mmHg 22%
    19:00 +23°C° 0 mm 1 mps 744 mmHg 23%
    20:00 +23°C° 0 mm 1 mps 744 mmHg 23%
    21:00 +22°C° 0 mm 1 mps 744 mmHg 24%
    22:00 +21°C° 0 mm 1 mps 744 mmHg 24%
    23:00 +21°C° 0 mm 1 mps 744 mmHg 25%

    Day after tomorrow, 21 December, Thursday

    Time Temperature Precipitation Wind Pressure Humidity
    00:00 +20°C° 0 mm 2 mps 744 mmHg 25%
    01:00 +19°C° 0 mm 2 mps 744 mmHg 25%
    02:00 +19°C° 0 mm 2 mps 744 mmHg 25%
    03:00 +19°C° 0 mm 2 mps 744 mmHg 26%
    04:00 +19°C° 0 mm 2 mps 744 mmHg 26%
    05:00 +19°C° 0 mm 2 mps 743 mmHg 26%
    06:00 +19°C° 0 mm 2 mps 744 mmHg 27%
    07:00 +19°C° 0 mm 2 mps 745 mmHg 28%
    08:00 +19°C° 0 mm 2 mps 745 mmHg 29%
    09:00 +21°C° 0 mm 2 mps 745 mmHg 26%
    10:00 +24°C° 0 mm 2 mps 746 mmHg 24%
    11:00 +26°C° 0 mm 2 mps 746 mmHg 21%
    12:00 +28°C° 0 mm 3 mps 745 mmHg 20%
    13:00 +29°C° 0 mm 3 mps 744 mmHg 19%
    14:00 +30°C° 0 mm 3 mps 743 mmHg 18%
    15:00 +28°C° 0 mm 3 mps 743 mmHg 20%
    16:00 +27°C° 0 mm 2 mps 743 mmHg 22%
    17:00 +26°C° 0 mm 2 mps 743 mmHg 24%
    18:00 +25°C° 0 mm 2 mps 743 mmHg 24%
    19:00 +24°C° 0 mm 2 mps 743 mmHg 25%
    20:00 +23°C° 0 mm 2 mps 744 mmHg 25%
    21:00 +21°C° 0 mm 2 mps 744 mmHg 26%
    22:00 +21°C° 0 mm 2 mps 743 mmHg 26%
    23:00 +20°C° 0 mm 3 mps 743 mmHg 27%

    22 December, Friday

    Time Temperature Precipitation Wind Pressure Humidity
    00:00 +20°C° 0 mm 3 mps 743 mmHg 29%
    01:00 +19°C° 0 mm 3 mps 743 mmHg 31%
    02:00 +19°C° 0 mm 3 mps 742 mmHg 33%
    03:00 +18°C° 0 mm 3 mps 742 mmHg 34%
    04:00 +18°C° 0 mm 3 mps 742 mmHg 35%
    05:00 +17°C° 0 mm 3 mps 742 mmHg 36%
    06:00 +18°C° 0 mm 3 mps 743 mmHg 36%
    07:00 +18°C° 0 mm 3 mps 743 mmHg 36%
    08:00 +18°C° 0 mm 3 mps 744 mmHg 36%
    09:00 +20°C° 0 mm 3 mps 744 mmHg 32%
    10:00 +24°C° 0 mm 3 mps 744 mmHg 28%
    11:00 +26°C° 0 mm 4 mps 744 mmHg 24%
    12:00 +27°C° 0 mm 4 mps 744 mmHg 22%
    13:00 +28°C° 0 mm 4 mps 743 mmHg 21%
    14:00 +29°C° 0 mm 4 mps 742 mmHg 19%
    15:00 +27°C° 0 mm 4 mps 742 mmHg 22%
    16:00 +26°C° 0 mm 3 mps 742 mmHg 24%
    17:00 +24°C° 0 mm 3 mps 741 mmHg 26%
    18:00 +22°C° 0 mm 3 mps 742 mmHg 27%
    19:00 +21°C° 0 mm 2 mps 742 mmHg 27%
    20:00 +20°C° 0 mm 2 mps 742 mmHg 28%
    21:00 +20°C° 0 mm 2 mps 742 mmHg 28%
    22:00 +19°C° 0 mm 2 mps 742 mmHg 29%
    23:00 +19°C° 0 mm 2 mps 742 mmHg 29%

    23 December, Saturday

    Time Temperature Precipitation Wind Pressure Humidity
    00:00 +18°C° 0 mm 2 mps 742 mmHg 30%
    01:00 +18°C° 0 mm 3 mps 741 mmHg 31%
    02:00 +17°C° 0 mm 3 mps 741 mmHg 32%
    03:00 +17°C° 0 mm 3 mps 741 mmHg 33%
    04:00 +17°C° 0 mm 3 mps 741 mmHg 34%
    05:00 +16°C° 0 mm 3 mps 740 mmHg 35%
    06:00 +16°C° 0 mm 3 mps 741 mmHg 36%
    07:00 +17°C° 0 mm 2 mps 741 mmHg 37%
    08:00 +17°C° 0 mm 2 mps 742 mmHg 38%
    09:00 +19°C° 0 mm 3 mps 742 mmHg 33%
    10:00 +21°C° 0 mm 3 mps 742 mmHg 29%
    11:00 +25°C° 0 mm 3 mps 742 mmHg 25%
    12:00 +25°C° 0 mm 3 mps 741 mmHg 23%
    13:00 +26°C° 0 mm 3 mps 741 mmHg 21%
    14:00 +27°C° 0 mm 3 mps 740 mmHg 20%
    15:00 +26°C° 0 mm 3 mps 740 mmHg 22%
    16:00 +24°C° 0 mm 3 mps 740 mmHg 24%
    17:00 +23°C° 0 mm 2 mps 740 mmHg 26%
    18:00 +21°C° 0 mm 2 mps 740 mmHg 27%
    19:00 +20°C° 0 mm 2 mps 740 mmHg 28%
    20:00 +19°C° 0 mm 2 mps 741 mmHg 29%
    21:00 +19°C° 0 mm 2 mps 741 mmHg 29%
    22:00 +18°C° 0 mm 2 mps 741 mmHg 29%
    23:00 +18°C° 0 mm 2 mps 741 mmHg 30%

    24 December, Sunday

    Time Temperature Precipitation Wind Pressure Humidity
    00:00 +17°C° 0 mm 2 mps 741 mmHg 30%
    01:00 +17°C° 0 mm 2 mps 740 mmHg 31%
    02:00 +16°C° 0 mm 2 mps 740 mmHg 31%
    03:00 +16°C° 0 mm 2 mps 740 mmHg 31%
    04:00 +16°C° 0 mm 2 mps 740 mmHg 32%
    05:00 +16°C° 0 mm 2 mps 740 mmHg 32%
    06:00 +16°C° 0 mm 1 mps 740 mmHg 33%
    07:00 +16°C° 0 mm 1 mps 741 mmHg 34%
    08:00 +16°C° 0 mm 1 mps 742 mmHg 35%
    09:00 +20°C° 0 mm 1 mps 742 mmHg 31%
    10:00 +22°C° 0 mm 1 mps 742 mmHg 27%
    11:00 +24°C° 0 mm 1 mps 742 mmHg 23%
    12:00 +25°C° 0 mm 2 mps 741 mmHg 21%
    13:00 +25°C° 0 mm 2 mps 741 mmHg 20%
    14:00 +26°C° 0 mm 2 mps 740 mmHg 18%
    15:00 +25°C° 0 mm 2 mps 740 mmHg 20%
    16:00 +24°C° 0 mm 1 mps 740 mmHg 22%
    17:00 +22°C° 0 mm 1 mps 739 mmHg 24%
    18:00 +22°C° 0 mm 1 mps 740 mmHg 25%
    19:00 +21°C° 0 mm 1 mps 740 mmHg 25%
    20:00 +20°C° 0 mm 1 mps 741 mmHg 26%
    21:00 +20°C° 0 mm 1 mps 741 mmHg 27%
    22:00 +19°C° 0 mm 1 mps 741 mmHg 27%
    23:00 +19°C° 0 mm 1 mps 741 mmHg 28%
    Show more